Fort Smith, AR

2:18 AM CDT on September 28, 2016 (GMT -0500)
Fort Smith Regional

Weather History for KFSM - November, 2010

Change the Weather History Date:

Monday, November 15, 2010

  Actual Average Record
Temperature  
Mean Temperature 51 °F 52 °F  
Max Temperature 61 °F 63 °F 83 °F (1955)
Min Temperature 41 °F 41 °F 18 °F (1940)
Degree Days  
Heating Degree Days 14 13  
Month to date heating degree days 129 161  
Since 1 July heating degree days 207 315  
Growing Degree Days 2 (Base 50)    
Moisture  
Dew Point 36 °F    
Average Humidity 60    
Maximum Humidity 83    
Minimum Humidity 36    
Precipitation  
Precipitation 0.00 in 0.15 in 2.46 in (1890)
Month to date precipitation 0.41 2.27  
Year to date precipitation 31.07 40.00  
Sea Level Pressure  
Sea Level Pressure 29.82 in    
Wind  
Wind Speed 8 mph (ENE)    
Max Wind Speed 16 mph    
Max Gust Speed 21 mph    
Visibility 10 miles    
Events      
T = Trace of Precipitation, MM = Missing Value Source: NWS Daily Summary

Daily Weather History Graph

Daily Weather History Graph

Search for Another Location

Airport or City:

Trip Planner

Search our weather history database for the weather conditions in past years. The results will help you decide how hot, cold, wet, or windy it might be!

Date:

Astronomy

Nov. 15, 2010 Rise Set
Actual Time 6:52 AM CST 5:11 PM CST
Civil Twilight 6:25 AM CST 5:38 PM CST
Nautical Twilight 5:54 AM CST 6:08 PM CST
Astronomical Twilight 5:24 AM CST 6:39 PM CST
Moon 1:43 PM CST (11/15) 1:10 AM CST (11/15)
Length of Visible Light 11h 12m
Length of Day
10h 18m
Waxing Gibbous, 69% of the Moon is Illuminated
Nov 15
Waxing Gibbous
Nov 21
Full
Nov 28
Last Quarter
Dec 5
New
Dec 13
First Quarter

Hourly Weather History & Observations

Time (CST) Temp. Windchill Dew Point Humidity Pressure Visibility Wind Dir Wind Speed Gust Speed Precip Events Conditions
12:53 AM 46.0 °F - 39.0 °F 76% 29.94 in 10.0 mi Calm Calm - N/A   Overcast
1:53 AM 45.0 °F 43.5 °F 39.0 °F 80% 29.92 in 10.0 mi ENE 3.5 mph - N/A   Scattered Clouds
2:53 AM 44.1 °F - 39.0 °F 82% 29.89 in 10.0 mi Calm Calm - N/A   Overcast
3:53 AM 43.0 °F 39.5 °F 37.9 °F 82% 29.88 in 10.0 mi ENE 5.8 mph - N/A   Overcast
4:53 AM 42.1 °F 38.4 °F 36.0 °F 79% 29.88 in 10.0 mi ENE 5.8 mph - N/A   Partly Cloudy
5:53 AM 42.1 °F 37.7 °F 37.0 °F 82% 29.88 in 10.0 mi ENE 6.9 mph - N/A   Mostly Cloudy
6:53 AM 42.1 °F 38.4 °F 37.0 °F 82% 29.88 in 10.0 mi ENE 5.8 mph - N/A   Mostly Cloudy
7:53 AM 43.0 °F 39.5 °F 37.0 °F 80% 29.88 in 10.0 mi NE 5.8 mph - N/A   Clear
8:53 AM 44.1 °F 40.1 °F 37.9 °F 79% 29.88 in 10.0 mi East 6.9 mph - N/A   Clear
9:53 AM 51.1 °F - 37.0 °F 59% 29.88 in 10.0 mi East 8.1 mph - N/A   Clear
10:53 AM 55.9 °F - 37.0 °F 49% 29.86 in 10.0 mi ESE 9.2 mph - N/A   Clear
11:53 AM 57.0 °F - 36.0 °F 45% 29.83 in 10.0 mi East 9.2 mph - N/A   Clear
12:53 PM 57.9 °F - 35.1 °F 42% 29.79 in 10.0 mi ENE 11.5 mph - N/A   Clear
1:53 PM 60.1 °F - 36.0 °F 41% 29.75 in 10.0 mi East 10.4 mph 18.4 mph N/A   Clear
2:53 PM 61.0 °F - 33.1 °F 35% 29.73 in 10.0 mi East 10.4 mph - N/A   Clear
3:53 PM 57.9 °F - 33.1 °F 39% 29.74 in 10.0 mi ENE 13.8 mph - N/A   Clear
4:53 PM 57.0 °F - 32.0 °F 39% 29.74 in 10.0 mi ENE 10.4 mph - N/A   Mostly Cloudy
5:53 PM 55.9 °F - 34.0 °F 44% 29.73 in 10.0 mi NE 9.2 mph - N/A   Scattered Clouds
6:53 PM 55.0 °F - 35.1 °F 47% 29.74 in 10.0 mi NE 9.2 mph - N/A   Overcast
7:53 PM 55.0 °F - 34.0 °F 45% 29.76 in 10.0 mi NE 8.1 mph - N/A   Overcast
8:53 PM 55.0 °F - 35.1 °F 47% 29.76 in 10.0 mi NNE 6.9 mph - N/A   Overcast
9:53 PM 55.0 °F - 34.0 °F 45% 29.78 in 10.0 mi NE 5.8 mph - N/A   Overcast
10:53 PM 53.1 °F - 36.0 °F 52% 29.78 in 10.0 mi North 8.1 mph - N/A   Overcast
11:53 PM 53.1 °F - 35.1 °F 50% 29.77 in 10.0 mi NNE 9.2 mph - N/A   Overcast